Regional Weather Roundup
Issued by NWS Huntsville, AL

Home | Current Version | Previous Version | Text Only | Print | Product List | Glossary On
Versions: 1 2 3 4 5 6 7 8 9 10 11 12 13 14 15 16 17 18 19 20 21 22 23 24 25 26 27 28 29 30 31 32 33 34 35 36 37 38 39 40 41 42 43 44 45 46 47 48 49 50
000
ASUS44 KHUN 170510
RWRHUN

WEATHER ROUNDUP FOR THE TENNESSEE VALLEY
NATIONAL WEATHER SERVICE HUNTSVILLE AL
1200 AM CDT WED SEP 17 2014

ALZ001>004-170600-
NORTHWEST ALABAMA

CITY           SKY/WX    TMP DP  RH WIND       PRES   REMARKS
COURTLAND HCN    N/A     68 N/A N/A CALM        N/A
RUSSELLVILLE     N/A     68 N/A N/A MISG        N/A
SHOALS AIRPORT CLEAR     68  61  78 CALM      30.06F
SHOALS TVA RES   N/A     68 N/A N/A MISG        N/A
$$

ALZ005>007-016-170600-
NORTH CENTRAL ALABAMA

CITY           SKY/WX    TMP DP  RH WIND       PRES   REMARKS
CULLMAN AG STN   N/A     68 N/A N/A N5          N/A
DECATUR AP     CLEAR     67  63  87 N6        30.05S
HUNTSVILLE AP  CLEAR     68  64  87 N5        30.04F
HUN NWS/UAH      N/A     68  61  78 N3          N/A
MERIDIANVILLE  PTCLDY    64  59  82 CALM      30.05S HAZE
VINEMONT AP    FAIR      66  65  94 N3        30.07R
$$

ALZ008>010-170600-
NORTHEAST ALABAMA

CITY           SKY/WX    TMP DP  RH WIND       PRES   REMARKS
ALBERTVILLE    CLEAR     70  70 100 N5        30.02S
FORT PAYNE     CLEAR     68  63  83 CALM      30.02F
SCOTTSBORO AP  CLOUDY    68  66  94 NE3       30.04S FOG
SCOTTSBORO HCN   N/A     68 N/A N/A MISG        N/A
VALLEY HEAD      N/A     68 N/A N/A MISG        N/A
$$

TNZ076-096-097-170600-
SOUTHEASTERN MIDDLE TENNESSEE

CITY           SKY/WX    TMP DP  RH WIND       PRES   REMARKS
FAYETTEVILLE   PTCLDY    63  63 100 CALM      30.06S
TULLAHOMA      CLEAR     61  57  88 CALM      30.07S
WINCHESTER     CLEAR     63  63 100 N5        30.06S
$$

...SURROUNDING SITES...

CITY           SKY/WX    TMP DP  RH WIND       PRES   REMARKS
ATLANTA        PTCLDY    73  67  81 NW5       30.00F
ANNISTON       PTCLDY    71  69  93 CALM      30.01S FOG
BIRMINGHAM     CLEAR     73  68  84 NW3       30.04R
CHATTANOOGA    PTCLDY    70  62  76 N9        30.03F
CORINTH          N/A     64  61  88 CALM      30.06S
DALTON         CLOUDY    68  66  94 NW7       30.02S
GADSDEN        CLEAR     72  64  78 N3        30.02S
GOLDEN TRNGL   CLOUDY    73  66  78 N5        30.03S
HALEYVILLE     CLOUDY    67  67 100 N5        30.07F
JACKSON TN     MOCLDY    62  60  93 CALM      30.08S
LEWISBURG      MOCLDY    62  59  90 CALM      30.07S
MEMPHIS        CLEAR     68  60  75 NE6       30.07S
MURFREESBORO   FAIR      62  58  87 NW3       30.06S
NASHVILLE      PTCLDY    61  55  81 NW5       30.07S
OXFORD MS      FAIR      66  64  94 CALM      30.07S
ROME           CLEAR     71  67  87 N7        30.01S
SAVANNAH       PTCLDY    63  63 100 CALM      30.07S
TUPELO         CLOUDY    69  66  90 NE6       30.04F
TUSCALOOSA     MOCLDY    73  69  87 CALM      30.00S
$$

...GULF COAST WEATHER...

CITY           SKY/WX    TMP DP  RH WIND       PRES   REMARKS
GULFPORT       CLOUDY    74  71  91 N5        29.98F
PASCAGOULA     CLOUDY    73  72  96 CALM      29.99F
MOBILE         CLOUDY    71  71 100 W3        29.99F
GULF SHORES    CLOUDY    72  71  97 CALM      29.98F
PENSACOLA      LGT RAIN  73  72  96 N5        29.96F
DESTIN         LGT RAIN  76  74  93 CALM      29.98F
PANAMA CITY    CLOUDY    75  75 100 E3        29.98F
APPALACHICOLA  CLOUDY    78  73  84 CALM      29.98F
$$




USA.gov is the U.S. government's official web portal to all federal, state and local government web resources and services.